Portada
METAR-TAF:

METAR-TAF

Aeroports :

Morrisville-Stowe State Airport

Morrisville, Vermont, Estats Units d'Amèrica

latitud: 44-32-10N, longitud: 072-36-58W, altitud: 223 m

Observació

L'informe es va fer fa 1 hora i 3 minuts, a les 17:54 UTC
Vent 4 kt del Sud
Temperatura 5°C
Humitat 93%
Pressió 1014 hPa
Visibilitat: 16.1 km
Cel cobert a una alçada de 600 ft

METAR: KMVL 261754Z AUTO 17004KT 10SM OVC006 05/04 A2994 RMK AO2 SLP147 60001 T00500039 10050 20011 56026 $

Hora: 13:57 (18:57 UTC)


TAF: manca

Observacions i pronòstics meteorològics de més de 4000 aeroports (METAR i TAF).

Les estacions disponibles són els punts grocs i vermells al mapa.

Posi el ratolí al punt desitjat per veure el nom de l'estació.

Feu clic per veure les observacions i els pronòstics meteorològics.

Per canviar el mapa: feu clic els botons verds amb una creu de color negre per apropar; al botó verd amb un guió per allunyar la imatge; o en les fletxes verdes per a mapes adjacents.


METAR-TAF: